This is the latest recevied weather packets stored in our database for station/object W8RSN-13. If no packets are shown the sender has not sent any weather packets the latest 10 day(s).
| Time | Temp. | Humidity | Pressure | Rain* | Wind** | Luminosity | Snow |
|---|---|---|---|---|---|---|---|
| 1788326365 | 20° C | 62% | 1017.6 hPa | - | - | - | - |
| 1788326064 | 20.56° C | 64% | 1017.6 hPa | - | - | - | - |
| 1788325763 | 20.56° C | 64% | 1017.5 hPa | - | - | - | - |
| 1788325463 | 20.56° C | 64% | 1017.5 hPa | - | - | - | - |
| 1788325161 | 20.56° C | 63% | 1017.4 hPa | - | - | - | - |
| 1788324861 | 20.56° C | 63% | 1017.3 hPa | - | - | - | - |
| 1788324560 | 20.56° C | 63% | 1017.3 hPa | - | - | - | - |
| 1788324259 | 20.56° C | 62% | 1017.3 hPa | - | - | - | - |
| 1788323958 | 20.56° C | 62% | 1017.2 hPa | - | - | - | - |
| 1788323657 | 21.11° C | 61% | 1016.9 hPa | - | - | - | - |
| 1788323356 | 21.11° C | 60% | 1016.9 hPa | - | - | - | - |
| 1788323075 | 21.11° C | 59% | 1016.9 hPa | - | - | - | - |
| 1788322774 | 21.67° C | 57% | 1016.8 hPa | - | - | - | - |
| 1788322474 | 21.67° C | 55% | 1016.8 hPa | - | - | - | - |
| 1788322173 | 22.22° C | 52% | 1016.8 hPa | - | - | - | - |
| 1788321872 | 22.22° C | 52% | 1016.5 hPa | - | - | - | - |
| 1788321571 | 22.22° C | 50% | 1016.2 hPa | - | - | - | - |
| 1788321270 | 22.78° C | 50% | 1016.4 hPa | - | - | - | - |
| 1788320969 | 22.78° C | 49% | 1016.1 hPa | - | - | - | - |
| 1788320668 | 22.78° C | 49% | 1016.1 hPa | - | - | - | - |
| 1788320367 | 22.78° C | 49% | 1015.9 hPa | - | - | - | - |
| 1788320066 | 22.78° C | 50% | 1015.9 hPa | - | - | - | - |
| 1788319766 | 22.78° C | 50% | 1015.9 hPa | - | - | - | - |
| 1788319465 | 23.33° C | 50% | 1015.7 hPa | - | - | - | - |
| 1788319164 | 23.33° C | 51% | 1015.5 hPa | - | - | - | - |
* Rain since midnight (hover to see other rain measurements)
** Current wind speed in m/s (hover to see current wind gust speed)